"Sample Date","Sample Time","Sample Value","Units","Flow Rate","Sample Interval","Number Channels","Micron Size 0","Counts/Channel 0","Micron Size 1","Counts/Channel 1","Micron Size 2","Counts/Channel 2","Micron Size 3","Counts/Channel 3","Micron Size 4","Counts/Channel 4","Micron Size 5","Counts/Channel 5","Micron Size 6","Counts/Channel 6","Micron Size 7","Counts/Channel 7","Micron Size 8","Counts/Channel 8","Micron Size 9","Counts/Channel 9","Micron Size 10","Counts/Channel 10","Micron Size 11","Counts/Channel 11","Micron Size 12","Counts/Channel 12","Micron Size 13","Counts/Channel 13","Micron Size 14","Counts/Channel 14","Micron Size 15","Counts/Channel 15","Micron Size 16","Counts/Channel 16","Micron Size 17","Counts/Channel 17","Micron Size 18","Counts/Channel 18","Micron Size 19","Counts/Channel 19","Micron Size 20","Counts/Channel 20","Micron Size 21","Counts/Channel 21","Micron Size 22","Counts/Channel 22","Micron Size 23","Counts/Channel 23","Micron Size 24","Counts/Channel 24","Micron Size 25","Counts/Channel 25","Micron Size 26","Counts/Channel 26","Micron Size 27","Counts/Channel 27","Micron Size 28","Counts/Channel 28","Micron Size 29","Counts/Channel 29","Micron Size 30","Counts/Channel 30","Micron Size 31","Counts/Channel 31"
"04/03/08","10:00:03",18405.000,"cc",28350.121,6.00,6,0.100,12133.000,0.200,2572.000,0.300,1542.000,0.500,1592.000,1.000,566.000,5.000,0
"04/03/08","10:00:09",18339.000,"cc",28278.770,6.00,6,0.100,12051.000,0.200,2526.000,0.300,1567.000,0.500,1638.000,1.000,557.000,5.000,0
"04/03/08","10:00:15",18198.000,"cc",28306.254,6.00,6,0.100,11859.000,0.200,2629.000,0.300,1534.000,0.500,1638.000,1.000,538.000,5.000,0
"04/03/08","10:00:21",18538.000,"cc",28291.541,6.00,6,0.100,12269.000,0.200,2556.000,0.300,1533.000,0.500,1642.000,1.000,538.000,5.000,0
"04/03/08","10:00:27",18605.000,"cc",28264.158,6.00,6,0.100,12145.000,0.200,2550.000,0.300,1593.000,0.500,1759.000,1.000,558.000,5.000,0
"04/03/08","10:00:33",18663.000,"cc",28283.316,6.00,6,0.100,12211.000,0.200,2582.000,0.300,1554.000,0.500,1741.000,1.000,575.000,5.000,0
"04/03/08","10:00:39",18640.000,"cc",28349.818,6.00,6,0.100,12193.000,0.200,2590.000,0.300,1605.000,0.500,1656.000,1.000,596.000,5.000,0
"04/03/08","10:00:45",18690.000,"cc",28377.516,6.00,6,0.100,12351.000,0.200,2583.000,0.300,1539.000,0.500,1655.000,1.000,562.000,5.000,0
"04/03/08","10:00:51",18921.000,"cc",28293.715,6.00,6,0.100,12414.000,0.200,2685.000,0.300,1556.000,0.500,1692.000,1.000,574.000,5.000,0
"04/03/08","10:00:57",18804.000,"cc",28281.035,6.00,6,0.100,12440.000,0.200,2594.000,0.300,1582.000,0.500,1638.000,1.000,550.000,5.000,0
"04/03/08","10:01:03",18640.000,"cc",28324.129,6.00,6,0.100,12293.000,0.200,2567.000,0.300,1541.000,0.500,1735.000,1.000,504.000,5.000,0
"04/03/08","10:01:09",18903.000,"cc",28422.559,6.00,6,0.100,12386.000,0.200,2661.000,0.300,1638.000,0.500,1640.000,1.000,578.000,5.000,0
"04/03/08","10:01:15",18617.000,"cc",28276.014,6.00,6,0.100,12306.000,0.200,2609.000,0.300,1517.000,0.500,1659.000,1.000,526.000,5.000,0
"04/03/08","10:01:21",18707.000,"cc",28286.197,6.00,6,0.100,12304.000,0.200,2581.000,0.300,1551.000,0.500,1725.000,1.000,546.000,5.000,0
"04/03/08","10:01:27",18827.000,"cc",28339.398,6.00,6,0.100,12333.000,0.200,2634.000,0.300,1642.000,0.500,1668.000,1.000,550.000,5.000,0
"04/03/08","10:01:33",18851.000,"cc",28351.469,6.00,6,0.100,12344.000,0.200,2649.000,0.300,1627.000,0.500,1670.000,1.000,561.000,5.000,0
"04/03/08","10:01:39",18446.000,"cc",28385.805,6.00,6,0.100,12147.000,0.200,2479.000,0.300,1591.000,0.500,1648.000,1.000,581.000,5.000,0
"04/03/08","10:01:45",18743.000,"cc",28260.037,6.00,6,0.100,12276.000,0.200,2711.000,0.300,1578.000,0.500,1599.000,1.000,579.000,5.000,0
"04/03/08","10:01:51",18844.000,"cc",28205.506,6.00,6,0.100,12527.000,0.200,2549.000,0.300,1548.000,0.500,1663.000,1.000,557.000,5.000,0
"04/03/08","10:01:57",18790.000,"cc",28276.078,6.00,6,0.100,12256.000,0.200,2689.000,0.300,1637.000,0.500,1632.000,1.000,576.000,5.000,0
"04/03/08","10:02:03",18959.000,"cc",28341.324,6.00,6,0.100,12452.000,0.200,2681.000,0.300,1584.000,0.500,1678.000,1.000,564.000,5.000,0
"04/03/08","10:02:09",19168.000,"cc",28353.502,6.00,6,0.100,12624.000,0.200,2663.000,0.300,1613.000,0.500,1696.000,1.000,572.000,5.000,0
"04/03/08","10:02:15",18930.000,"cc",28327.918,6.00,6,0.100,12260.000,0.200,2634.000,0.300,1662.000,0.500,1755.000,1.000,619.000,5.000,0
"04/03/08","10:02:21",18771.000,"cc",28292.732,6.00,6,0.100,12315.000,0.200,2711.000,0.300,1546.000,0.500,1643.000,1.000,556.000,5.000,0
"04/03/08","10:02:27",18883.000,"cc",28331.889,6.00,6,0.100,12426.000,0.200,2655.000,0.300,1563.000,0.500,1711.000,1.000,528.000,5.000,0
"04/03/08","10:02:33",18649.000,"cc",28340.748,6.00,6,0.100,12269.000,0.200,2550.000,0.300,1557.000,0.500,1733.000,1.000,540.000,5.000,0
"04/03/08","10:02:39",19057.000,"cc",28356.332,6.00,6,0.100,12451.000,0.200,2664.000,0.300,1565.000,0.500,1751.000,1.000,626.000,5.000,0
"04/03/08","10:02:45",18425.000,"cc",28274.402,6.00,6,0.100,12098.000,0.200,2587.000,0.300,1563.000,0.500,1628.000,1.000,549.000,5.000,0
"04/03/08","10:02:51",18468.000,"cc",28333.139,6.00,6,0.100,12144.000,0.200,2510.000,0.300,1607.000,0.500,1621.000,1.000,586.000,5.000,0
"04/03/08","10:02:57",18649.000,"cc",28313.941,6.00,6,0.100,12224.000,0.200,2585.000,0.300,1600.000,0.500,1676.000,1.000,564.000,5.000,0
"04/03/08","10:03:03",18475.000,"cc",28366.488,6.00,6,0.100,12114.000,0.200,2550.000,0.300,1587.000,0.500,1669.000,1.000,555.000,5.000,0
"04/03/08","10:03:09",18748.000,"cc",28277.412,6.00,6,0.100,12264.000,0.200,2636.000,0.300,1674.000,0.500,1607.000,1.000,567.000,5.000,0
"04/03/08","10:03:15",18798.000,"cc",28309.723,6.00,6,0.100,12365.000,0.200,2570.000,0.300,1588.000,0.500,1720.000,1.000,555.000,5.000,0
"04/03/08","10:03:21",18775.000,"cc",28334.555,6.00,6,0.100,12192.000,0.200,2645.000,0.300,1650.000,0.500,1742.000,1.000,546.000,5.000,0
"04/03/08","10:03:27",18757.000,"cc",28288.797,6.00,6,0.100,12220.000,0.200,2568.000,0.300,1697.000,0.500,1723.000,1.000,549.000,5.000,0
"04/03/08","10:03:33",18709.000,"cc",28411.443,6.00,6,0.100,12315.000,0.200,2586.000,0.300,1538.000,0.500,1675.000,1.000,595.000,5.000,0
"04/03/08","10:03:39",18403.000,"cc",28240.941,6.00,6,0.100,12216.000,0.200,2503.000,0.300,1468.000,0.500,1651.000,1.000,565.000,5.000,0
"04/03/08","10:03:45",18675.000,"cc",28298.902,6.00,6,0.100,12257.000,0.200,2619.000,0.300,1578.000,0.500,1677.000,1.000,544.000,5.000,0
"04/03/08","10:03:51",18697.000,"cc",28295.291,6.00,6,0.100,12191.000,0.200,2637.000,0.300,1627.000,0.500,1677.000,1.000,565.000,5.000,0
"04/03/08","10:03:57",18570.000,"cc",28335.244,6.00,6,0.100,12252.000,0.200,2543.000,0.300,1566.000,0.500,1652.000,1.000,557.000,5.000,0
"04/03/08","10:04:03",18597.000,"cc",28345.492,6.00,6,0.100,12044.000,0.200,2627.000,0.300,1614.000,0.500,1736.000,1.000,576.000,5.000,0
"04/03/08","10:04:09",18904.000,"cc",28286.590,6.00,6,0.100,12267.000,0.200,2717.000,0.300,1636.000,0.500,1699.000,1.000,585.000,5.000,0
"04/03/08","10:04:15",18649.000,"cc",28355.063,6.00,6,0.100,12177.000,0.200,2578.000,0.300,1554.000,0.500,1775.000,1.000,565.000,5.000,0
"04/03/08","10:04:21",18548.000,"cc",28379.117,6.00,6,0.100,12176.000,0.200,2613.000,0.300,1563.000,0.500,1646.000,1.000,550.000,5.000,0
"04/03/08","10:04:27",18040.000,"cc",28318.258,6.00,6,0.100,11688.000,0.200,2573.000,0.300,1575.000,0.500,1644.000,1.000,560.000,5.000,0
"04/03/08","10:04:33",18393.000,"cc",28306.856,6.00,6,0.100,12038.000,0.200,2618.000,0.300,1572.000,0.500,1620.000,1.000,545.000,5.000,0
"04/03/08","10:04:39",18798.000,"cc",28295.018,6.00,6,0.100,12289.000,0.200,2695.000,0.300,1601.000,0.500,1656.000,1.000,557.000,5.000,0
"04/03/08","10:04:45",18661.000,"cc",28284.693,6.00,6,0.100,12203.000,0.200,2604.000,0.300,1651.000,0.500,1654.000,1.000,549.000,5.000,0
"04/03/08","10:04:51",18404.000,"cc",28266.324,6.00,6,0.100,11910.000,0.200,2571.000,0.300,1707.000,0.500,1651.000,1.000,565.000,5.000,0
"04/03/08","10:04:57",18475.000,"cc",28326.607,6.00,6,0.100,12143.000,0.200,2619.000,0.300,1561.000,0.500,1649.000,1.000,503.000,5.000,0
"04/03/08","10:05:03",18771.000,"cc",28325.203,6.00,6,0.100,12260.000,0.200,2677.000,0.300,1594.000,0.500,1677.000,1.000,563.000,5.000,0
"04/03/08","10:05:09",18127.000,"cc",28335.643,6.00,6,0.100,11843.000,0.200,2541.000,0.300,1603.000,0.500,1598.000,1.000,542.000,5.000,0
"04/03/08","10:05:15",18310.000,"cc",28359.203,6.00,6,0.100,11948.000,0.200,2555.000,0.300,1616.000,0.500,1614.000,1.000,577.000,5.000,0
"04/03/08","10:05:21",18435.000,"cc",28308.434,6.00,6,0.100,12083.000,0.200,2544.000,0.300,1617.000,0.500,1623.000,1.000,568.000,5.000,0
"04/03/08","10:05:27",18241.000,"cc",28283.799,6.00,6,0.100,11969.000,0.200,2605.000,0.300,1538.000,0.500,1578.000,1.000,551.000,5.000,0
"04/03/08","10:05:33",18603.000,"cc",28254.674,6.00,6,0.100,12082.000,0.200,2591.000,0.300,1727.000,0.500,1664.000,1.000,539.000,5.000,0
"04/03/08","10:05:39",18538.000,"cc",28341.117,6.00,6,0.100,12103.000,0.200,2522.000,0.300,1658.000,0.500,1729.000,1.000,526.000,5.000,0
"04/03/08","10:05:45",18805.000,"cc",28373.842,6.00,6,0.100,12249.000,0.200,2656.000,0.300,1659.000,0.500,1692.000,1.000,549.000,5.000,0
"04/03/08","10:05:51",18667.000,"cc",28333.008,6.00,6,0.100,12149.000,0.200,2659.000,0.300,1629.000,0.500,1706.000,1.000,524.000,5.000,0
"04/03/08","10:05:57",18746.000,"cc",28307.186,6.00,6,0.100,12218.000,0.200,2634.000,0.300,1633.000,0.500,1728.000,1.000,533.000,5.000,0
"04/03/08","10:06:03",18977.000,"cc",28330.889,6.00,6,0.100,12195.000,0.200,2710.000,0.300,1681.000,0.500,1800.000,1.000,591.000,5.000,0
"04/03/08","10:06:09",18929.000,"cc",28388.424,6.00,6,0.100,12174.000,0.200,2678.000,0.300,1640.000,0.500,1799.000,1.000,638.000,5.000,0
"04/03/08","10:06:15",18696.000,"cc",28331.592,6.00,6,0.100,12068.000,0.200,2712.000,0.300,1618.000,0.500,1694.000,1.000,604.000,5.000,0
"04/03/08","10:06:21",18461.000,"cc",28234.637,6.00,6,0.100,12049.000,0.200,2608.000,0.300,1597.000,0.500,1669.000,1.000,537.000,5.000,1.000
"04/03/08","10:06:27",19064.000,"cc",28274.414,6.00,6,0.100,12321.000,0.200,2752.000,0.300,1639.000,0.500,1779.000,1.000,573.000,5.000,0
"04/03/08","10:06:33",19031.000,"cc",28301.344,6.00,6,0.100,12438.000,0.200,2688.000,0.300,1611.000,0.500,1715.000,1.000,579.000,5.000,0
"04/03/08","10:06:39",18961.000,"cc",28360.809,6.00,6,0.100,12370.000,0.200,2552.000,0.300,1670.000,0.500,1741.000,1.000,628.000,5.000,0
"04/03/08","10:06:45",18979.000,"cc",28295.801,6.00,6,0.100,12440.000,0.200,2673.000,0.300,1609.000,0.500,1719.000,1.000,538.000,5.000,0
"04/03/08","10:06:51",18718.000,"cc",28303.106,6.00,6,0.100,12125.000,0.200,2647.000,0.300,1667.000,0.500,1725.000,1.000,554.000,5.000,0
"04/03/08","10:06:57",19152.000,"cc",28395.537,6.00,6,0.100,12394.000,0.200,2640.000,0.300,1717.000,0.500,1811.000,1.000,590.000,5.000,0
"04/03/08","10:07:03",18818.000,"cc",28358.229,6.00,6,0.100,12030.000,0.200,2750.000,0.300,1684.000,0.500,1768.000,1.000,586.000,5.000,0
"04/03/08","10:07:09",19066.000,"cc",28319.428,6.00,6,0.100,12329.000,0.200,2642.000,0.300,1721.000,0.500,1795.000,1.000,579.000,5.000,0
"04/03/08","10:07:15",18736.000,"cc",28332.440,6.00,6,0.100,12077.000,0.200,2799.000,0.300,1585.000,0.500,1745.000,1.000,530.000,5.000,0
"04/03/08","10:07:21",18977.000,"cc",28231.299,6.00,6,0.100,12202.000,0.200,2685.000,0.300,1720.000,0.500,1760.000,1.000,610.000,5.000,0
"04/03/08","10:07:27",18883.000,"cc",28285.465,6.00,6,0.100,12278.000,0.200,2649.000,0.300,1655.000,0.500,1740.000,1.000,561.000,5.000,0
"04/03/08","10:07:33",18983.000,"cc",28372.885,6.00,6,0.100,12304.000,0.200,2769.000,0.300,1673.000,0.500,1643.000,1.000,594.000,5.000,0
"04/03/08","10:07:39",18649.000,"cc",28319.705,6.00,6,0.100,12169.000,0.200,2518.000,0.300,1646.000,0.500,1691.000,1.000,625.000,5.000,0
"04/03/08","10:07:45",18844.000,"cc",28325.977,6.00,6,0.100,12142.000,0.200,2702.000,0.300,1696.000,0.500,1738.000,1.000,566.000,5.000,0
"04/03/08","10:07:51",18805.000,"cc",28397.416,6.00,6,0.100,12199.000,0.200,2673.000,0.300,1658.000,0.500,1685.000,1.000,590.000,5.000,0
"04/03/08","10:07:57",18392.000,"cc",28292.631,6.00,6,0.100,12082.000,0.200,2534.000,0.300,1644.000,0.500,1607.000,1.000,525.000,5.000,0
"04/03/08","10:08:03",18571.000,"cc",28268.346,6.00,6,0.100,11885.000,0.200,2601.000,0.300,1694.000,0.500,1815.000,1.000,576.000,5.000,0
"04/03/08","10:08:09",18480.000,"cc",28284.049,6.00,6,0.100,11858.000,0.200,2612.000,0.300,1689.000,0.500,1739.000,1.000,582.000,5.000,0
"04/03/08","10:08:15",18770.000,"cc",28287.070,6.00,6,0.100,12074.000,0.200,2665.000,0.300,1693.000,0.500,1761.000,1.000,577.000,5.000,0
"04/03/08","10:08:21",18890.000,"cc",28371.039,6.00,6,0.100,12100.000,0.200,2691.000,0.300,1755.000,0.500,1749.000,1.000,595.000,5.000,0
"04/03/08","10:08:27",18738.000,"cc",28312.959,6.00,6,0.100,12202.000,0.200,2641.000,0.300,1673.000,0.500,1658.000,1.000,564.000,5.000,0
"04/03/08","10:08:33",18382.000,"cc",28270.410,6.00,6,0.100,11896.000,0.200,2592.000,0.300,1620.000,0.500,1688.000,1.000,586.000,5.000,0
"04/03/08","10:08:39",18531.000,"cc",28373.988,6.00,6,0.100,11923.000,0.200,2603.000,0.300,1694.000,0.500,1758.000,1.000,553.000,5.000,0
"04/03/08","10:08:45",18627.000,"cc",28353.154,6.00,6,0.100,11942.000,0.200,2646.000,0.300,1667.000,0.500,1797.000,1.000,575.000,5.000,0
"04/03/08","10:08:51",18822.000,"cc",28206.424,6.00,6,0.100,12012.000,0.200,2701.000,0.300,1748.000,0.500,1761.000,1.000,600.000,5.000,0
"04/03/08","10:08:57",18587.000,"cc",28337.389,6.00,6,0.100,11820.000,0.200,2688.000,0.300,1730.000,0.500,1753.000,1.000,596.000,5.000,0
"04/03/08","10:09:03",18485.000,"cc",28350.711,6.00,6,0.100,11837.000,0.200,2634.000,0.300,1652.000,0.500,1784.000,1.000,578.000,5.000,0
"04/03/08","10:09:09",18691.000,"cc",28296.131,6.00,6,0.100,12019.000,0.200,2694.000,0.300,1687.000,0.500,1782.000,1.000,509.000,5.000,0
"04/03/08","10:09:15",18613.000,"cc",28339.740,6.00,6,0.100,12072.000,0.200,2577.000,0.300,1668.000,0.500,1719.000,1.000,577.000,5.000,0
"04/03/08","10:09:21",18456.000,"cc",28342.117,6.00,6,0.100,11905.000,0.200,2604.000,0.300,1684.000,0.500,1734.000,1.000,529.000,5.000,0
"04/03/08","10:09:27",18408.000,"cc",28321.557,6.00,6,0.100,11880.000,0.200,2612.000,0.300,1651.000,0.500,1691.000,1.000,574.000,5.000,0
"04/03/08","10:09:33",18737.000,"cc",28335.684,6.00,6,0.100,11995.000,0.200,2614.000,0.300,1787.000,0.500,1761.000,1.000,580.000,5.000,0
"04/03/08","10:09:39",18599.000,"cc",28311.043,6.00,6,0.100,11999.000,0.200,2542.000,0.300,1594.000,0.500,1828.000,1.000,636.000,5.000,0
"04/03/08","10:09:45",18697.000,"cc",28286.080,6.00,6,0.100,12091.000,0.200,2615.000,0.300,1695.000,0.500,1700.000,1.000,596.000,5.000,0
"04/03/08","10:09:51",18956.000,"cc",28281.078,6.00,6,0.100,12281.000,0.200,2619.000,0.300,1689.000,0.500,1788.000,1.000,579.000,5.000,0
"04/03/08","10:09:57",18507.000,"cc",28311.664,6.00,6,0.100,11815.000,0.200,2656.000,0.300,1642.000,0.500,1793.000,1.000,601.000,5.000,0
"04/03/08","10:10:03",19041.000,"cc",28295.746,6.00,6,0.100,12088.000,0.200,2811.000,0.300,1733.000,0.500,1795.000,1.000,614.000,5.000,0
"04/03/08","10:10:09",18791.000,"cc",28342.201,6.00,6,0.100,12144.000,0.200,2676.000,0.300,1681.000,0.500,1708.000,1.000,582.000,5.000,0
"04/03/08","10:10:15",18660.000,"cc",28351.895,6.00,6,0.100,12015.000,0.200,2673.000,0.300,1622.000,0.500,1770.000,1.000,580.000,5.000,0
"04/03/08","10:10:21",18758.000,"cc",28316.416,6.00,6,0.100,12071.000,0.200,2735.000,0.300,1642.000,0.500,1709.000,1.000,601.000,5.000,0
"04/03/08","10:10:27",19483.000,"cc",28297.445,6.00,6,0.100,12482.000,0.200,2775.000,0.300,1854.000,0.500,1790.000,1.000,582.000,5.000,0
"04/03/08","10:10:33",18659.000,"cc",28237.613,6.00,6,0.100,11984.000,0.200,2617.000,0.300,1698.000,0.500,1768.000,1.000,592.000,5.000,0
"04/03/08","10:10:39",19190.000,"cc",28324.463,6.00,6,0.100,12270.000,0.200,2699.000,0.300,1785.000,0.500,1836.000,1.000,600.000,5.000,0
"04/03/08","10:10:45",19172.000,"cc",28363.369,6.00,6,0.100,12396.000,0.200,2765.000,0.300,1693.000,0.500,1755.000,1.000,563.000,5.000,0
"04/03/08","10:10:51",19082.000,"cc",28299.565,6.00,6,0.100,12293.000,0.200,2608.000,0.300,1775.000,0.500,1785.000,1.000,621.000,5.000,0
"04/03/08","10:10:57",19438.000,"cc",28276.981,6.00,6,0.100,12602.000,0.200,2711.000,0.300,1713.000,0.500,1770.000,1.000,642.000,5.000,0
"04/03/08","10:11:03",19199.000,"cc",28321.627,6.00,6,0.100,12295.000,0.200,2778.000,0.300,1767.000,0.500,1771.000,1.000,588.000,5.000,0
"04/03/08","10:11:09",18907.000,"cc",28290.463,6.00,6,0.100,12146.000,0.200,2745.000,0.300,1667.000,0.500,1750.000,1.000,599.000,5.000,0
"04/03/08","10:11:15",19250.000,"cc",28348.676,6.00,6,0.100,12380.000,0.200,2750.000,0.300,1783.000,0.500,1764.000,1.000,573.000,5.000,0
"04/03/08","10:11:21",19152.000,"cc",28351.287,6.00,6,0.100,12217.000,0.200,2850.000,0.300,1688.000,0.500,1801.000,1.000,596.000,5.000,0
"04/03/08","10:11:27",18797.000,"cc",28332.010,6.00,6,0.100,12063.000,0.200,2612.000,0.300,1720.000,0.500,1803.000,1.000,599.000,5.000,0
"04/03/08","10:11:33",19163.000,"cc",28304.916,6.00,6,0.100,12355.000,0.200,2725.000,0.300,1718.000,0.500,1776.000,1.000,589.000,5.000,0
"04/03/08","10:11:39",18968.000,"cc",28360.875,6.00,6,0.100,12206.000,0.200,2673.000,0.300,1750.000,0.500,1762.000,1.000,577.000,5.000,0
"04/03/08","10:11:45",18695.000,"cc",28336.268,6.00,6,0.100,11980.000,0.200,2726.000,0.300,1624.000,0.500,1785.000,1.000,580.000,5.000,0
"04/03/08","10:11:51",19075.000,"cc",28231.977,6.00,6,0.100,12212.000,0.200,2711.000,0.300,1741.000,0.500,1804.000,1.000,607.000,5.000,0
"04/03/08","10:11:57",19111.000,"cc",28257.381,6.00,6,0.100,12198.000,0.200,2720.000,0.300,1764.000,0.500,1825.000,1.000,604.000,5.000,0
"04/03/08","10:12:03",18919.000,"cc",28320.180,6.00,6,0.100,12191.000,0.200,2632.000,0.300,1747.000,0.500,1775.000,1.000,574.000,5.000,0
"04/03/08","10:12:09",18969.000,"cc",28423.793,6.00,6,0.100,12234.000,0.200,2728.000,0.300,1709.000,0.500,1738.000,1.000,560.000,5.000,0
"04/03/08","10:12:15",18432.000,"cc",28302.174,6.00,6,0.100,11921.000,0.200,2598.000,0.300,1662.000,0.500,1712.000,1.000,539.000,5.000,0
"04/03/08","10:12:21",18759.000,"cc",28339.273,6.00,6,0.100,12015.000,0.200,2694.000,0.300,1701.000,0.500,1772.000,1.000,577.000,5.000,0
"04/03/08","10:12:27",18857.000,"cc",28305.277,6.00,6,0.100,12159.000,0.200,2680.000,0.300,1684.000,0.500,1717.000,1.000,617.000,5.000,0
"04/03/08","10:12:33",18951.000,"cc",28248.734,6.00,6,0.100,12299.000,0.200,2595.000,0.300,1733.000,0.500,1741.000,1.000,583.000,5.000,0
"04/03/08","10:12:39",19179.000,"cc",28344.160,6.00,6,0.100,12285.000,0.200,2810.000,0.300,1714.000,0.500,1789.000,1.000,581.000,5.000,0
"04/03/08","10:12:45",19048.000,"cc",28337.340,6.00,6,0.100,12285.000,0.200,2749.000,0.300,1699.000,0.500,1705.000,1.000,610.000,5.000,0
"04/03/08","10:12:51",18782.000,"cc",28352.996,6.00,6,0.100,12027.000,0.200,2698.000,0.300,1706.000,0.500,1766.000,1.000,585.000,5.000,0
"04/03/08","10:12:57",19071.000,"cc",28241.615,6.00,6,0.100,12202.000,0.200,2811.000,0.300,1696.000,0.500,1729.000,1.000,633.000,5.000,0
"04/03/08","10:13:03",18986.000,"cc",28302.496,6.00,6,0.100,12147.000,0.200,2699.000,0.300,1729.000,0.500,1800.000,1.000,611.000,5.000,0
"04/03/08","10:13:09",19108.000,"cc",28348.863,6.00,6,0.100,12384.000,0.200,2656.000,0.300,1718.000,0.500,1758.000,1.000,592.000,5.000,0
"04/03/08","10:13:15",19312.000,"cc",28304.635,6.00,6,0.100,12328.000,0.200,2721.000,0.300,1818.000,0.500,1856.000,1.000,589.000,5.000,0
"04/03/08","10:13:21",19004.000,"cc",28363.291,6.00,6,0.100,12296.000,0.200,2713.000,0.300,1718.000,0.500,1703.000,1.000,574.000,5.000,0
"04/03/08","10:13:27",18870.000,"cc",28343.035,6.00,6,0.100,12189.000,0.200,2696.000,0.300,1724.000,0.500,1679.000,1.000,582.000,5.000,0
"04/03/08","10:13:33",18911.000,"cc",28296.420,6.00,6,0.100,11965.000,0.200,2795.000,0.300,1816.000,0.500,1732.000,1.000,603.000,5.000,0
"04/03/08","10:13:39",19125.000,"cc",28337.787,6.00,6,0.100,12366.000,0.200,2719.000,0.300,1714.000,0.500,1721.000,1.000,605.000,5.000,0
"04/03/08","10:13:45",19019.000,"cc",28326.260,6.00,6,0.100,12322.000,0.200,2767.000,0.300,1653.000,0.500,1698.000,1.000,579.000,5.000,0
"04/03/08","10:13:51",19285.000,"cc",28226.957,6.00,6,0.100,12362.000,0.200,2820.000,0.300,1762.000,0.500,1761.000,1.000,580.000,5.000,0
"04/03/08","10:13:57",18965.000,"cc",28280.772,6.00,6,0.100,12203.000,0.200,2622.000,0.300,1780.000,0.500,1817.000,1.000,543.000,5.000,0
"04/03/08","10:14:03",19178.000,"cc",28349.559,6.00,6,0.100,12196.000,0.200,2857.000,0.300,1662.000,0.500,1891.000,1.000,572.000,5.000,0
"04/03/08","10:14:09",19255.000,"cc",28347.643,6.00,6,0.100,12491.000,0.200,2784.000,0.300,1748.000,0.500,1689.000,1.000,543.000,5.000,0
"04/03/08","10:14:15",18838.000,"cc",28276.537,6.00,6,0.100,12127.000,0.200,2673.000,0.300,1742.000,0.500,1723.000,1.000,573.000,5.000,0
"04/03/08","10:14:21",19434.000,"cc",28292.361,6.00,6,0.100,12334.000,0.200,2876.000,0.300,1784.000,0.500,1806.000,1.000,634.000,5.000,0
"04/03/08","10:14:27",19282.000,"cc",28297.662,6.00,6,0.100,12397.000,0.200,2726.000,0.300,1787.000,0.500,1754.000,1.000,618.000,5.000,0
"04/03/08","10:14:33",19557.000,"cc",28354.998,6.00,6,0.100,12652.000,0.200,2818.000,0.300,1688.000,0.500,1827.000,1.000,572.000,5.000,0
"04/03/08","10:14:39",19356.000,"cc",28329.342,6.00,6,0.100,12294.000,0.200,2766.000,0.300,1804.000,0.500,1873.000,1.000,619.000,5.000,0
"04/03/08","10:14:45",19298.000,"cc",28362.377,6.00,6,0.100,12297.000,0.200,2823.000,0.300,1739.000,0.500,1825.000,1.000,614.000,5.000,0
"04/03/08","10:14:51",18976.000,"cc",28277.988,6.00,6,0.100,12143.000,0.200,2710.000,0.300,1714.000,0.500,1815.000,1.000,594.000,5.000,0
"04/03/08","10:14:57",19470.000,"cc",28344.014,6.00,6,0.100,12518.000,0.200,2773.000,0.300,1800.000,0.500,1848.000,1.000,531.000,5.000,0
"04/03/08","10:15:03",19075.000,"cc",28370.856,6.00,6,0.100,12407.000,0.200,2697.000,0.300,1714.000,0.500,1666.000,1.000,591.000,5.000,0
"04/03/08","10:15:09",19047.000,"cc",28272.227,6.00,6,0.100,12419.000,0.200,2750.000,0.300,1636.000,0.500,1663.000,1.000,579.000,5.000,0
"04/03/08","10:15:15",18948.000,"cc",28346.059,6.00,6,0.100,12081.000,0.200,2762.000,0.300,1699.000,0.500,1781.000,1.000,625.000,5.000,0
"04/03/08","10:15:21",19088.000,"cc",28334.098,6.00,6,0.100,12263.000,0.200,2753.000,0.300,1725.000,0.500,1778.000,1.000,569.000,5.000,0
"04/03/08","10:15:27",19220.000,"cc",28306.512,6.00,6,0.100,12408.000,0.200,2812.000,0.300,1693.000,0.500,1757.000,1.000,550.000,5.000,0
"04/03/08","10:15:33",19340.000,"cc",28261.820,6.00,6,0.100,12315.000,0.200,2829.000,0.300,1726.000,0.500,1834.000,1.000,636.000,5.000,0
"04/03/08","10:15:39",19395.000,"cc",28276.074,6.00,6,0.100,12437.000,0.200,2725.000,0.300,1772.000,0.500,1868.000,1.000,593.000,5.000,0
"04/03/08","10:15:45",19571.000,"cc",28240.914,6.00,6,0.100,12559.000,0.200,2800.000,0.300,1733.000,0.500,1848.000,1.000,631.000,5.000,0
"04/03/08","10:15:51",19582.000,"cc",28305.772,6.00,6,0.100,12570.000,0.200,2862.000,0.300,1745.000,0.500,1861.000,1.000,544.000,5.000,0
"04/03/08","10:15:57",19172.000,"cc",28373.188,6.00,6,0.100,12269.000,0.200,2719.000,0.300,1832.000,0.500,1734.000,1.000,618.000,5.000,0
"04/03/08","10:16:03",19477.000,"cc",28326.383,6.00,6,0.100,12415.000,0.200,2891.000,0.300,1788.000,0.500,1722.000,1.000,661.000,5.000,0
"04/03/08","10:16:09",19369.000,"cc",28296.342,6.00,6,0.100,12376.000,0.200,2827.000,0.300,1785.000,0.500,1759.000,1.000,622.000,5.000,0
"04/03/08","10:16:15",19088.000,"cc",28359.615,6.00,6,0.100,12327.000,0.200,2737.000,0.300,1718.000,0.500,1765.000,1.000,541.000,5.000,0
"04/03/08","10:16:21",19191.000,"cc",28292.059,6.00,6,0.100,12389.000,0.200,2785.000,0.300,1702.000,0.500,1731.000,1.000,584.000,5.000,0